#datetime,building,power
2024-03-15T00:00:00,pst,13.18
2024-03-15T00:01:00,pst,13.19
2024-03-15T00:02:00,pst,13.33
2024-03-15T00:03:00,pst,13.14
2024-03-15T00:04:00,pst,13.14
2024-03-15T00:05:00,pst,13.06
2024-03-15T00:06:00,pst,13.17
2024-03-15T00:07:00,pst,12.80
2024-03-15T00:08:00,pst,12.83
2024-03-15T00:09:00,pst,13.02
2024-03-15T00:10:00,pst,13.02
2024-03-15T00:11:00,pst,13.07
2024-03-15T00:12:00,pst,13.06
2024-03-15T00:13:00,pst,13.06
2024-03-15T00:14:00,pst,13.86
2024-03-15T00:15:00,pst,13.25
2024-03-15T00:16:00,pst,13.75
2024-03-15T00:17:00,pst,13.63
2024-03-15T00:18:00,pst,13.59
2024-03-15T00:19:00,pst,13.57
2024-03-15T00:20:00,pst,13.71
2024-03-15T00:21:00,pst,13.69
2024-03-15T00:22:00,pst,13.64
2024-03-15T00:23:00,pst,13.55
2024-03-15T00:24:00,pst,13.62
2024-03-15T00:25:00,pst,13.17
2024-03-15T00:26:00,pst,13.14
2024-03-15T00:27:00,pst,13.58
2024-03-15T00:28:00,pst,15.08
2024-03-15T00:29:00,pst,15.09
2024-03-15T00:30:00,pst,15.15
2024-03-15T00:31:00,pst,14.98
2024-03-15T00:32:00,pst,14.94
2024-03-15T00:33:00,pst,14.91
2024-03-15T00:34:00,pst,14.95
2024-03-15T00:35:00,pst,14.92
2024-03-15T00:36:00,pst,14.88
2024-03-15T00:37:00,pst,14.41
2024-03-15T00:38:00,pst,14.37
2024-03-15T00:39:00,pst,13.88
2024-03-15T00:40:00,pst,12.86
2024-03-15T00:41:00,pst,12.65
2024-03-15T00:42:00,pst,12.72
2024-03-15T00:43:00,pst,12.83
2024-03-15T00:44:00,pst,13.02
2024-03-15T00:45:00,pst,12.94
2024-03-15T00:46:00,pst,12.92
2024-03-15T00:47:00,pst,13.01
2024-03-15T00:48:00,pst,13.00
2024-03-15T00:49:00,pst,13.00
2024-03-15T00:50:00,pst,13.02
2024-03-15T00:51:00,pst,13.65
2024-03-15T00:52:00,pst,13.56
2024-03-15T00:53:00,pst,13.92
2024-03-15T00:54:00,pst,13.98
2024-03-15T00:55:00,pst,13.83
2024-03-15T00:56:00,pst,13.79
2024-03-15T00:57:00,pst,13.80
2024-03-15T00:58:00,pst,13.69
2024-03-15T00:59:00,pst,13.72
2024-03-15T01:00:00,pst,13.74
2024-03-15T01:01:00,pst,13.88
2024-03-15T01:02:00,pst,13.71
2024-03-15T01:03:00,pst,13.68
2024-03-15T01:04:00,pst,13.69
2024-03-15T01:05:00,pst,13.69
2024-03-15T01:06:00,pst,13.34
2024-03-15T01:07:00,pst,13.35
2024-03-15T01:08:00,pst,13.45
2024-03-15T01:09:00,pst,12.99
2024-03-15T01:10:00,pst,12.96
2024-03-15T01:11:00,pst,12.96
2024-03-15T01:12:00,pst,12.84
2024-03-15T01:13:00,pst,12.96
2024-03-15T01:14:00,pst,12.96
2024-03-15T01:15:00,pst,13.18
2024-03-15T01:16:00,pst,13.01
2024-03-15T01:17:00,pst,12.96
2024-03-15T01:18:00,pst,13.06
2024-03-15T01:19:00,pst,12.94
2024-03-15T01:20:00,pst,12.93
2024-03-15T01:21:00,pst,12.89
2024-03-15T01:22:00,pst,12.81
2024-03-15T01:23:00,pst,12.75
2024-03-15T01:24:00,pst,14.93
2024-03-15T01:25:00,pst,14.47
2024-03-15T01:26:00,pst,13.57
2024-03-15T01:27:00,pst,15.01
2024-03-15T01:28:00,pst,13.11
2024-03-15T01:29:00,pst,13.10
2024-03-15T01:30:00,pst,14.96
2024-03-15T01:31:00,pst,15.00
2024-03-15T01:32:00,pst,15.11
2024-03-15T01:33:00,pst,22.08
2024-03-15T01:34:00,pst,23.90
2024-03-15T01:35:00,pst,23.74
2024-03-15T01:36:00,pst,21.59
2024-03-15T01:37:00,pst,23.15
2024-03-15T01:38:00,pst,13.05
2024-03-15T01:39:00,pst,12.97
2024-03-15T01:40:00,pst,14.82
2024-03-15T01:41:00,pst,14.05
2024-03-15T01:42:00,pst,15.02
2024-03-15T01:43:00,pst,12.93
2024-03-15T01:44:00,pst,14.84
2024-03-15T01:45:00,pst,15.31
2024-03-15T01:46:00,pst,13.42
2024-03-15T01:47:00,pst,13.44
2024-03-15T01:48:00,pst,13.41
2024-03-15T01:49:00,pst,15.48
2024-03-15T01:50:00,pst,13.29
2024-03-15T01:51:00,pst,13.32
2024-03-15T01:52:00,pst,15.37
2024-03-15T01:53:00,pst,15.03
2024-03-15T01:54:00,pst,12.84
2024-03-15T01:55:00,pst,12.77
2024-03-15T01:56:00,pst,12.90
2024-03-15T01:57:00,pst,14.82
2024-03-15T01:58:00,pst,12.88
2024-03-15T01:59:00,pst,13.01
2024-03-15T02:00:00,pst,12.88
2024-03-15T02:01:00,pst,12.86
2024-03-15T02:02:00,pst,13.00
2024-03-15T02:03:00,pst,13.05
2024-03-15T02:04:00,pst,13.01
2024-03-15T02:05:00,pst,13.04
2024-03-15T02:06:00,pst,13.24
2024-03-15T02:07:00,pst,13.06
2024-03-15T02:08:00,pst,13.01
2024-03-15T02:09:00,pst,12.98
2024-03-15T02:10:00,pst,13.00
2024-03-15T02:11:00,pst,13.12
2024-03-15T02:12:00,pst,13.04
2024-03-15T02:13:00,pst,13.18
2024-03-15T02:14:00,pst,13.11
2024-03-15T02:15:00,pst,12.87
2024-03-15T02:16:00,pst,12.92
2024-03-15T02:17:00,pst,12.91
2024-03-15T02:18:00,pst,12.86
2024-03-15T02:19:00,pst,12.83
2024-03-15T02:20:00,pst,13.01
2024-03-15T02:21:00,pst,13.14
2024-03-15T02:22:00,pst,13.05
2024-03-15T02:23:00,pst,13.18
2024-03-15T02:24:00,pst,13.07
2024-03-15T02:25:00,pst,13.01
2024-03-15T02:26:00,pst,13.28
2024-03-15T02:27:00,pst,13.35
2024-03-15T02:28:00,pst,13.34
2024-03-15T02:29:00,pst,13.24
2024-03-15T02:30:00,pst,12.94
2024-03-15T02:31:00,pst,12.77
2024-03-15T02:32:00,pst,12.96
2024-03-15T02:33:00,pst,13.03
2024-03-15T02:34:00,pst,12.87
2024-03-15T02:35:00,pst,13.94
2024-03-15T02:36:00,pst,13.99
2024-03-15T02:37:00,pst,14.05
2024-03-15T02:38:00,pst,13.94
2024-03-15T02:39:00,pst,13.97
2024-03-15T02:40:00,pst,14.03
2024-03-15T02:41:00,pst,14.04
2024-03-15T02:42:00,pst,13.99
2024-03-15T02:43:00,pst,13.98
2024-03-15T02:44:00,pst,14.04
2024-03-15T02:45:00,pst,13.86
2024-03-15T02:46:00,pst,13.86
2024-03-15T02:47:00,pst,13.88
2024-03-15T02:48:00,pst,13.71
2024-03-15T02:49:00,pst,13.74
2024-03-15T02:50:00,pst,13.68
2024-03-15T02:51:00,pst,13.62
2024-03-15T02:52:00,pst,13.61
2024-03-15T02:53:00,pst,13.66
2024-03-15T02:54:00,pst,13.64
2024-03-15T02:55:00,pst,13.65
2024-03-15T02:56:00,pst,13.57
2024-03-15T02:57:00,pst,14.07
2024-03-15T02:58:00,pst,13.89
2024-03-15T02:59:00,pst,14.07
2024-03-15T03:00:00,pst,14.07
2024-03-15T03:01:00,pst,14.21
2024-03-15T03:02:00,pst,13.26
2024-03-15T03:03:00,pst,13.15
2024-03-15T03:04:00,pst,13.39
2024-03-15T03:05:00,pst,14.19
2024-03-15T03:06:00,pst,12.99
2024-03-15T03:07:00,pst,12.96
2024-03-15T03:08:00,pst,13.02
2024-03-15T03:09:00,pst,13.94
2024-03-15T03:10:00,pst,14.00
2024-03-15T03:11:00,pst,14.12
2024-03-15T03:12:00,pst,13.99
2024-03-15T03:13:00,pst,13.87
2024-03-15T03:14:00,pst,13.99
2024-03-15T03:15:00,pst,13.95
2024-03-15T03:16:00,pst,14.00
2024-03-15T03:17:00,pst,14.01
2024-03-15T03:18:00,pst,14.13
2024-03-15T03:19:00,pst,13.93
2024-03-15T03:20:00,pst,13.87
2024-03-15T03:21:00,pst,14.03
2024-03-15T03:22:00,pst,13.36
2024-03-15T03:23:00,pst,13.78
2024-03-15T03:24:00,pst,13.84
2024-03-15T03:25:00,pst,13.75
2024-03-15T03:26:00,pst,13.57
2024-03-15T03:27:00,pst,13.63
2024-03-15T03:28:00,pst,13.78
2024-03-15T03:29:00,pst,13.61
2024-03-15T03:30:00,pst,13.57
2024-03-15T03:31:00,pst,13.54
2024-03-15T03:32:00,pst,13.89
2024-03-15T03:33:00,pst,13.93
2024-03-15T03:34:00,pst,13.84
2024-03-15T03:35:00,pst,13.89
2024-03-15T03:36:00,pst,13.89
2024-03-15T03:37:00,pst,13.85
2024-03-15T03:38:00,pst,13.91
2024-03-15T03:39:00,pst,13.76
2024-03-15T03:40:00,pst,13.76
2024-03-15T03:41:00,pst,13.34
2024-03-15T03:42:00,pst,13.52
2024-03-15T03:43:00,pst,13.53
2024-03-15T03:44:00,pst,13.54
2024-03-15T03:45:00,pst,13.44
2024-03-15T03:46:00,pst,13.38
2024-03-15T03:47:00,pst,13.38
2024-03-15T03:48:00,pst,13.37
2024-03-15T03:49:00,pst,13.32
2024-03-15T03:50:00,pst,13.30
2024-03-15T03:51:00,pst,13.26
2024-03-15T03:52:00,pst,13.47
2024-03-15T03:53:00,pst,13.46
2024-03-15T03:54:00,pst,12.88
2024-03-15T03:55:00,pst,12.85
2024-03-15T03:56:00,pst,12.91
2024-03-15T03:57:00,pst,12.74
2024-03-15T03:58:00,pst,12.74
2024-03-15T03:59:00,pst,12.73
2024-03-15T04:00:00,pst,12.57
2024-03-15T04:01:00,pst,12.54
2024-03-15T04:02:00,pst,12.64
2024-03-15T04:03:00,pst,12.39
2024-03-15T04:04:00,pst,12.31
2024-03-15T04:05:00,pst,12.50
2024-03-15T04:06:00,pst,12.38
2024-03-15T04:07:00,pst,12.45
2024-03-15T04:08:00,pst,12.87
2024-03-15T04:09:00,pst,12.88
2024-03-15T04:10:00,pst,12.89
2024-03-15T04:11:00,pst,12.92
2024-03-15T04:12:00,pst,12.85
2024-03-15T04:13:00,pst,12.84
2024-03-15T04:14:00,pst,13.03
2024-03-15T04:15:00,pst,13.10
2024-03-15T04:16:00,pst,12.97
2024-03-15T04:17:00,pst,12.70
2024-03-15T04:18:00,pst,12.75
2024-03-15T04:19:00,pst,13.00
2024-03-15T04:20:00,pst,21.62
2024-03-15T04:21:00,pst,21.49
2024-03-15T04:22:00,pst,21.44
2024-03-15T04:23:00,pst,12.78
2024-03-15T04:24:00,pst,12.82
2024-03-15T04:25:00,pst,12.82
2024-03-15T04:26:00,pst,12.81
2024-03-15T04:27:00,pst,12.65
2024-03-15T04:28:00,pst,12.66
2024-03-15T04:29:00,pst,12.69
2024-03-15T04:30:00,pst,12.72
2024-03-15T04:31:00,pst,12.65
2024-03-15T04:32:00,pst,12.81
2024-03-15T04:33:00,pst,12.62
2024-03-15T04:34:00,pst,12.46
2024-03-15T04:35:00,pst,12.46
2024-03-15T04:36:00,pst,12.59
2024-03-15T04:37:00,pst,12.46
2024-03-15T04:38:00,pst,12.44
2024-03-15T04:39:00,pst,12.61
2024-03-15T04:40:00,pst,12.45
2024-03-15T04:41:00,pst,12.46
2024-03-15T04:42:00,pst,12.55
2024-03-15T04:43:00,pst,12.50
2024-03-15T04:44:00,pst,12.91
2024-03-15T04:45:00,pst,12.95
2024-03-15T04:46:00,pst,12.95
2024-03-15T04:47:00,pst,12.94
2024-03-15T04:48:00,pst,12.95
2024-03-15T04:49:00,pst,13.04
2024-03-15T04:50:00,pst,12.89
2024-03-15T04:51:00,pst,13.08
2024-03-15T04:52:00,pst,13.16
2024-03-15T04:53:00,pst,12.72
2024-03-15T04:54:00,pst,12.62
2024-03-15T04:55:00,pst,12.65
2024-03-15T04:56:00,pst,12.70
2024-03-15T04:57:00,pst,12.70
2024-03-15T04:58:00,pst,12.69
2024-03-15T04:59:00,pst,12.63
2024-03-15T05:00:00,pst,12.57
2024-03-15T05:01:00,pst,12.52
2024-03-15T05:02:00,pst,12.71
2024-03-15T05:03:00,pst,12.58
2024-03-15T05:04:00,pst,12.60
2024-03-15T05:05:00,pst,12.58
2024-03-15T05:06:00,pst,12.74
2024-03-15T05:07:00,pst,12.66
2024-03-15T05:08:00,pst,12.51
2024-03-15T05:09:00,pst,12.66
2024-03-15T05:10:00,pst,12.64
2024-03-15T05:11:00,pst,12.63
2024-03-15T05:12:00,pst,12.62
2024-03-15T05:13:00,pst,12.53
2024-03-15T05:14:00,pst,12.52
2024-03-15T05:15:00,pst,12.56
2024-03-15T05:16:00,pst,12.56
2024-03-15T05:17:00,pst,12.62
2024-03-15T05:18:00,pst,12.58
2024-03-15T05:19:00,pst,12.76
2024-03-15T05:20:00,pst,13.05
2024-03-15T05:21:00,pst,12.98
2024-03-15T05:22:00,pst,13.08
2024-03-15T05:23:00,pst,12.98
2024-03-15T05:24:00,pst,12.93
2024-03-15T05:25:00,pst,13.08
2024-03-15T05:26:00,pst,13.02
2024-03-15T05:27:00,pst,12.91
2024-03-15T05:28:00,pst,13.04
2024-03-15T05:29:00,pst,13.02
2024-03-15T05:30:00,pst,12.60
2024-03-15T05:31:00,pst,12.57
2024-03-15T05:32:00,pst,12.72
2024-03-15T05:33:00,pst,12.62
2024-03-15T05:34:00,pst,12.63
2024-03-15T05:35:00,pst,12.60
2024-03-15T05:36:00,pst,12.88
2024-03-15T05:37:00,pst,12.70
2024-03-15T05:38:00,pst,12.72
2024-03-15T05:39:00,pst,12.84
2024-03-15T05:40:00,pst,12.70
2024-03-15T05:41:00,pst,12.69
2024-03-15T05:42:00,pst,12.54
2024-03-15T05:43:00,pst,12.56
2024-03-15T05:44:00,pst,12.62
2024-03-15T05:45:00,pst,12.52
2024-03-15T05:46:00,pst,12.48
2024-03-15T05:47:00,pst,12.46
2024-03-15T05:48:00,pst,12.54
2024-03-15T05:49:00,pst,12.74
2024-03-15T05:50:00,pst,12.55
2024-03-15T05:51:00,pst,12.53
2024-03-15T05:52:00,pst,12.71
2024-03-15T05:53:00,pst,12.60
2024-03-15T05:54:00,pst,12.59
2024-03-15T05:55:00,pst,12.54
2024-03-15T05:56:00,pst,12.80
2024-03-15T05:57:00,pst,12.90
2024-03-15T05:58:00,pst,12.86
2024-03-15T05:59:00,pst,13.12
2024-03-15T06:00:00,pst,13.19
2024-03-15T06:01:00,pst,13.30
2024-03-15T06:02:00,pst,13.46
2024-03-15T06:03:00,pst,13.18
2024-03-15T06:04:00,pst,13.04
2024-03-15T06:05:00,pst,13.04
2024-03-15T06:06:00,pst,12.62
2024-03-15T06:07:00,pst,12.58
2024-03-15T06:08:00,pst,12.58
2024-03-15T06:09:00,pst,12.55
2024-03-15T06:10:00,pst,12.44
2024-03-15T06:11:00,pst,12.45
2024-03-15T06:12:00,pst,12.51
2024-03-15T06:13:00,pst,12.44
2024-03-15T06:14:00,pst,12.44
2024-03-15T06:15:00,pst,12.38
2024-03-15T06:16:00,pst,12.33
2024-03-15T06:17:00,pst,12.31
2024-03-15T06:18:00,pst,12.29
2024-03-15T06:19:00,pst,12.29
2024-03-15T06:20:00,pst,12.27
2024-03-15T06:21:00,pst,12.44
2024-03-15T06:22:00,pst,12.63
2024-03-15T06:23:00,pst,12.57
2024-03-15T06:24:00,pst,12.59
2024-03-15T06:25:00,pst,12.58
2024-03-15T06:26:00,pst,12.54
2024-03-15T06:27:00,pst,12.57
2024-03-15T06:28:00,pst,12.44
2024-03-15T06:29:00,pst,12.61
2024-03-15T06:30:00,pst,12.53
2024-03-15T06:31:00,pst,12.54
2024-03-15T06:32:00,pst,12.91
2024-03-15T06:33:00,pst,13.07
2024-03-15T06:34:00,pst,13.08
2024-03-15T06:35:00,pst,13.06
2024-03-15T06:36:00,pst,12.96
2024-03-15T06:37:00,pst,12.96
2024-03-15T06:38:00,pst,12.97
2024-03-15T06:39:00,pst,12.90
2024-03-15T06:40:00,pst,12.89
2024-03-15T06:41:00,pst,12.94
2024-03-15T06:42:00,pst,12.69
2024-03-15T06:43:00,pst,12.47
2024-03-15T06:44:00,pst,12.56
2024-03-15T06:45:00,pst,12.65
2024-03-15T06:46:00,pst,12.47
2024-03-15T06:47:00,pst,12.53
2024-03-15T06:48:00,pst,12.59
2024-03-15T06:49:00,pst,12.41
2024-03-15T06:50:00,pst,12.48
2024-03-15T06:51:00,pst,12.49
2024-03-15T06:52:00,pst,12.58
2024-03-15T06:53:00,pst,12.44
2024-03-15T06:54:00,pst,12.47
2024-03-15T06:55:00,pst,12.53
2024-03-15T06:56:00,pst,7.05
2024-03-15T06:57:00,pst,7.05
2024-03-15T06:58:00,pst,7.06
2024-03-15T06:59:00,pst,7.06
2024-03-15T07:00:00,pst,7.06
2024-03-15T07:01:00,pst,15.91
2024-03-15T07:02:00,pst,15.72
2024-03-15T07:03:00,pst,15.58
2024-03-15T07:04:00,pst,15.49
2024-03-15T07:05:00,pst,7.03
2024-03-15T07:06:00,pst,7.06
2024-03-15T07:07:00,pst,7.65
2024-03-15T07:08:00,pst,7.60
2024-03-15T07:09:00,pst,7.57
2024-03-15T07:10:00,pst,7.58
2024-03-15T07:11:00,pst,7.62
2024-03-15T07:12:00,pst,7.56
2024-03-15T07:13:00,pst,7.66
2024-03-15T07:14:00,pst,7.71
2024-03-15T07:15:00,pst,7.80
2024-03-15T07:16:00,pst,7.37
2024-03-15T07:17:00,pst,7.31
2024-03-15T07:18:00,pst,7.27
2024-03-15T07:19:00,pst,7.35
2024-03-15T07:20:00,pst,7.24
2024-03-15T07:21:00,pst,7.12
2024-03-15T07:22:00,pst,7.14
2024-03-15T07:23:00,pst,6.98
2024-03-15T07:24:00,pst,6.98
2024-03-15T07:25:00,pst,6.96
2024-03-15T07:26:00,pst,7.02
2024-03-15T07:27:00,pst,7.04
2024-03-15T07:28:00,pst,7.10
2024-03-15T07:29:00,pst,7.05
2024-03-15T07:30:00,pst,7.05
2024-03-15T07:31:00,pst,7.29
2024-03-15T07:32:00,pst,7.26
2024-03-15T07:33:00,pst,7.29
2024-03-15T07:34:00,pst,7.43
2024-03-15T07:35:00,pst,7.58
2024-03-15T07:36:00,pst,7.65
2024-03-15T07:37:00,pst,7.61
2024-03-15T07:38:00,pst,7.66
2024-03-15T07:39:00,pst,8.96
2024-03-15T07:40:00,pst,8.95
2024-03-15T07:41:00,pst,9.48
2024-03-15T07:42:00,pst,9.47
2024-03-15T07:43:00,pst,8.14
2024-03-15T07:44:00,pst,8.16
2024-03-15T07:45:00,pst,8.13
2024-03-15T07:46:00,pst,8.09
2024-03-15T07:47:00,pst,8.11
2024-03-15T07:48:00,pst,7.95
2024-03-15T07:49:00,pst,7.92
2024-03-15T07:50:00,pst,7.52
2024-03-15T07:51:00,pst,7.43
2024-03-15T07:52:00,pst,7.46
2024-03-15T07:53:00,pst,7.38
2024-03-15T07:54:00,pst,7.42
2024-03-15T07:55:00,pst,7.38
2024-03-15T07:56:00,pst,7.38
2024-03-15T07:57:00,pst,7.17
2024-03-15T07:58:00,pst,7.23
2024-03-15T07:59:00,pst,7.35
2024-03-15T08:00:00,pst,7.25
2024-03-15T08:01:00,pst,7.30
2024-03-15T08:02:00,pst,7.39
2024-03-15T08:03:00,pst,7.35
2024-03-15T08:04:00,pst,7.33
2024-03-15T08:05:00,pst,7.34
2024-03-15T08:06:00,pst,7.31
2024-03-15T08:07:00,pst,7.27
2024-03-15T08:08:00,pst,7.28
2024-03-15T08:09:00,pst,7.29
2024-03-15T08:10:00,pst,7.23
2024-03-15T08:11:00,pst,7.10
2024-03-15T08:12:00,pst,7.18
2024-03-15T08:13:00,pst,7.30
2024-03-15T08:14:00,pst,7.68
2024-03-15T08:15:00,pst,7.76
2024-03-15T08:16:00,pst,7.64
2024-03-15T08:17:00,pst,7.71
2024-03-15T08:18:00,pst,7.66
2024-03-15T08:19:00,pst,7.61
2024-03-15T08:20:00,pst,7.69
2024-03-15T08:21:00,pst,7.61
2024-03-15T08:22:00,pst,7.56
2024-03-15T08:23:00,pst,7.20
2024-03-15T08:24:00,pst,7.16
2024-03-15T08:25:00,pst,7.13
2024-03-15T08:26:00,pst,7.10
2024-03-15T08:27:00,pst,7.16
2024-03-15T08:28:00,pst,7.13
2024-03-15T08:29:00,pst,7.10
2024-03-15T08:30:00,pst,7.72
2024-03-15T08:31:00,pst,7.05
2024-03-15T08:32:00,pst,7.07
2024-03-15T08:33:00,pst,7.04
2024-03-15T08:34:00,pst,7.03
2024-03-15T08:35:00,pst,6.91
2024-03-15T08:36:00,pst,6.97
2024-03-15T08:37:00,pst,6.97
2024-03-15T08:38:00,pst,6.91
2024-03-15T08:39:00,pst,7.04
2024-03-15T08:40:00,pst,6.95
2024-03-15T08:41:00,pst,6.98
2024-03-15T08:42:00,pst,7.06
2024-03-15T08:43:00,pst,7.03
2024-03-15T08:44:00,pst,7.04
2024-03-15T08:45:00,pst,7.04
2024-03-15T08:46:00,pst,7.19
2024-03-15T08:47:00,pst,7.13
2024-03-15T08:48:00,pst,7.42
2024-03-15T08:49:00,pst,7.66
2024-03-15T08:50:00,pst,7.67
2024-03-15T08:51:00,pst,7.71
2024-03-15T08:52:00,pst,7.69
2024-03-15T08:53:00,pst,7.65
2024-03-15T08:54:00,pst,7.60
2024-03-15T08:55:00,pst,7.73
2024-03-15T08:56:00,pst,7.66
2024-03-15T08:57:00,pst,7.60
2024-03-15T08:58:00,pst,7.04
2024-03-15T08:59:00,pst,7.07
2024-03-15T09:00:00,pst,7.12
2024-03-15T09:01:00,pst,7.12
2024-03-15T09:02:00,pst,7.13
2024-03-15T09:03:00,pst,7.13
2024-03-15T09:04:00,pst,7.13
2024-03-15T09:05:00,pst,6.94
2024-03-15T09:06:00,pst,6.92
2024-03-15T09:07:00,pst,6.98
2024-03-15T09:08:00,pst,6.98
2024-03-15T09:09:00,pst,7.09
2024-03-15T09:10:00,pst,7.17
2024-03-15T09:11:00,pst,7.30
2024-03-15T09:12:00,pst,7.22
2024-03-15T09:13:00,pst,7.24
2024-03-15T09:14:00,pst,7.20
2024-03-15T09:15:00,pst,7.25
2024-03-15T09:16:00,pst,7.23
2024-03-15T09:17:00,pst,7.14
2024-03-15T09:18:00,pst,7.08
2024-03-15T09:19:00,pst,7.02
2024-03-15T09:20:00,pst,7.03
2024-03-15T09:21:00,pst,7.03
2024-03-15T09:22:00,pst,7.05
2024-03-15T09:23:00,pst,7.61
2024-03-15T09:24:00,pst,7.65
2024-03-15T09:25:00,pst,7.69
2024-03-15T09:26:00,pst,7.70
2024-03-15T09:27:00,pst,7.67
2024-03-15T09:28:00,pst,7.77
2024-03-15T09:29:00,pst,7.77
2024-03-15T09:30:00,pst,7.79
2024-03-15T09:31:00,pst,7.75
2024-03-15T09:32:00,pst,7.41
2024-03-15T09:33:00,pst,7.47
2024-03-15T09:34:00,pst,7.43
2024-03-15T09:35:00,pst,7.37
2024-03-15T09:36:00,pst,7.37
2024-03-15T09:37:00,pst,7.33
2024-03-15T09:38:00,pst,7.40
2024-03-15T09:39:00,pst,7.21
2024-03-15T09:40:00,pst,7.22
2024-03-15T09:41:00,pst,7.36
2024-03-15T09:42:00,pst,7.41
2024-03-15T09:43:00,pst,7.31
2024-03-15T09:44:00,pst,7.30
2024-03-15T09:45:00,pst,16.08
2024-03-15T09:46:00,pst,15.85
2024-03-15T09:47:00,pst,7.36
2024-03-15T09:48:00,pst,11.83
2024-03-15T09:49:00,pst,7.66
2024-03-15T09:50:00,pst,7.69
2024-03-15T09:51:00,pst,7.75
2024-03-15T09:52:00,pst,7.81
2024-03-15T09:53:00,pst,7.87
2024-03-15T09:54:00,pst,7.86
2024-03-15T09:55:00,pst,8.07
2024-03-15T09:56:00,pst,8.08
2024-03-15T09:57:00,pst,8.60
2024-03-15T09:58:00,pst,8.49
2024-03-15T09:59:00,pst,8.50
2024-03-15T10:00:00,pst,8.65
2024-03-15T10:01:00,pst,8.69
2024-03-15T10:02:00,pst,8.70
2024-03-15T10:03:00,pst,8.71
2024-03-15T10:04:00,pst,8.69
2024-03-15T10:05:00,pst,8.61
2024-03-15T10:06:00,pst,8.23
2024-03-15T10:07:00,pst,8.18
2024-03-15T10:08:00,pst,8.28
2024-03-15T10:09:00,pst,8.26
2024-03-15T10:10:00,pst,8.35
2024-03-15T10:11:00,pst,8.36
2024-03-15T10:12:00,pst,8.62
2024-03-15T10:13:00,pst,8.61
2024-03-15T10:14:00,pst,8.56
2024-03-15T10:15:00,pst,8.19
2024-03-15T10:16:00,pst,7.99
2024-03-15T10:17:00,pst,7.74
2024-03-15T10:18:00,pst,7.67
2024-03-15T10:19:00,pst,7.61
2024-03-15T10:20:00,pst,18.99
2024-03-15T10:21:00,pst,7.61
2024-03-15T10:22:00,pst,7.59
2024-03-15T10:23:00,pst,7.60
2024-03-15T10:24:00,pst,7.58
2024-03-15T10:25:00,pst,7.59
2024-03-15T10:26:00,pst,7.63
2024-03-15T10:27:00,pst,7.65
2024-03-15T10:28:00,pst,11.87
2024-03-15T10:29:00,pst,11.85
2024-03-15T10:30:00,pst,11.85
2024-03-15T10:31:00,pst,12.27
2024-03-15T10:32:00,pst,13.30
2024-03-15T10:33:00,pst,12.24
2024-03-15T10:34:00,pst,12.33
2024-03-15T10:35:00,pst,12.24
2024-03-15T10:36:00,pst,12.19
2024-03-15T10:37:00,pst,13.27
2024-03-15T10:38:00,pst,13.12
2024-03-15T10:39:00,pst,13.08
2024-03-15T10:40:00,pst,13.21
2024-03-15T10:41:00,pst,12.80
2024-03-15T10:42:00,pst,12.82
2024-03-15T10:43:00,pst,12.87
2024-03-15T10:44:00,pst,12.67
2024-03-15T10:45:00,pst,12.68
2024-03-15T10:46:00,pst,12.74
2024-03-15T10:47:00,pst,11.79
2024-03-15T10:48:00,pst,12.80
2024-03-15T10:49:00,pst,12.75
2024-03-15T10:50:00,pst,12.73
2024-03-15T10:51:00,pst,12.81
2024-03-15T10:52:00,pst,12.85
2024-03-15T10:53:00,pst,12.76
2024-03-15T10:54:00,pst,12.76
2024-03-15T10:55:00,pst,12.76
2024-03-15T10:56:00,pst,12.77
2024-03-15T10:57:00,pst,12.92
2024-03-15T10:58:00,pst,12.95
2024-03-15T10:59:00,pst,12.83
2024-03-15T11:00:00,pst,12.80
2024-03-15T11:01:00,pst,12.69
2024-03-15T11:02:00,pst,12.90
2024-03-15T11:03:00,pst,11.82
2024-03-15T11:04:00,pst,12.71
2024-03-15T11:05:00,pst,12.77
2024-03-15T11:06:00,pst,20.83
2024-03-15T11:07:00,pst,8.13
2024-03-15T11:08:00,pst,8.15
2024-03-15T11:09:00,pst,11.98
2024-03-15T11:10:00,pst,12.07
2024-03-15T11:11:00,pst,12.06
2024-03-15T11:12:00,pst,8.26
2024-03-15T11:13:00,pst,9.25
2024-03-15T11:14:00,pst,9.30
2024-03-15T11:15:00,pst,12.68
2024-03-15T11:16:00,pst,12.74
2024-03-15T11:17:00,pst,12.76
2024-03-15T11:18:00,pst,8.73
2024-03-15T11:19:00,pst,8.86
2024-03-15T11:20:00,pst,12.89
2024-03-15T11:21:00,pst,11.80
2024-03-15T11:22:00,pst,12.74
2024-03-15T11:23:00,pst,8.82
2024-03-15T11:24:00,pst,8.93
2024-03-15T11:25:00,pst,12.81
2024-03-15T11:26:00,pst,12.74
2024-03-15T11:27:00,pst,8.57
2024-03-15T11:28:00,pst,8.49
2024-03-15T11:29:00,pst,8.57
2024-03-15T11:30:00,pst,8.55
2024-03-15T11:31:00,pst,8.33
2024-03-15T11:32:00,pst,8.37
2024-03-15T11:33:00,pst,7.34
2024-03-15T11:34:00,pst,7.45
2024-03-15T11:35:00,pst,7.42
2024-03-15T11:36:00,pst,7.72
2024-03-15T11:37:00,pst,8.73
2024-03-15T11:38:00,pst,8.71
2024-03-15T11:39:00,pst,8.70
2024-03-15T11:40:00,pst,8.69
2024-03-15T11:41:00,pst,7.68
2024-03-15T11:42:00,pst,9.19
2024-03-15T11:43:00,pst,9.25
2024-03-15T11:44:00,pst,8.29
2024-03-15T11:45:00,pst,8.23
2024-03-15T11:46:00,pst,9.14
2024-03-15T11:47:00,pst,8.16
2024-03-15T11:48:00,pst,8.44
2024-03-15T11:49:00,pst,9.38
2024-03-15T11:50:00,pst,9.34
2024-03-15T11:51:00,pst,8.93
2024-03-15T11:52:00,pst,7.82
2024-03-15T11:53:00,pst,7.78
2024-03-15T11:54:00,pst,7.81
2024-03-15T11:55:00,pst,7.74
2024-03-15T11:56:00,pst,7.70
2024-03-15T11:57:00,pst,7.42
2024-03-15T11:58:00,pst,7.50
2024-03-15T11:59:00,pst,7.49
2024-03-15T12:00:00,pst,7.49
2024-03-15T12:01:00,pst,7.54
2024-03-15T12:02:00,pst,7.56
2024-03-15T12:03:00,pst,16.41
2024-03-15T12:04:00,pst,18.89
2024-03-15T12:05:00,pst,16.30
2024-03-15T12:06:00,pst,16.26
2024-03-15T12:07:00,pst,16.04
2024-03-15T12:08:00,pst,9.81
2024-03-15T12:09:00,pst,7.70
2024-03-15T12:10:00,pst,7.65
2024-03-15T12:11:00,pst,7.63
2024-03-15T12:12:00,pst,7.67
2024-03-15T12:13:00,pst,18.88
2024-03-15T12:14:00,pst,7.68
2024-03-15T12:15:00,pst,8.35
2024-03-15T12:16:00,pst,7.62
2024-03-15T12:17:00,pst,7.78
2024-03-15T12:18:00,pst,8.26
2024-03-15T12:19:00,pst,8.22
2024-03-15T12:20:00,pst,8.20
2024-03-15T12:21:00,pst,8.10
2024-03-15T12:22:00,pst,8.10
2024-03-15T12:23:00,pst,8.14
2024-03-15T12:24:00,pst,8.00
2024-03-15T12:25:00,pst,7.84
2024-03-15T12:26:00,pst,7.92
2024-03-15T12:27:00,pst,7.56
2024-03-15T12:28:00,pst,7.55
2024-03-15T12:29:00,pst,7.51
2024-03-15T12:30:00,pst,7.55
2024-03-15T12:31:00,pst,7.49
2024-03-15T12:32:00,pst,7.51
2024-03-15T12:33:00,pst,7.64
2024-03-15T12:34:00,pst,7.66
2024-03-15T12:35:00,pst,7.88
2024-03-15T12:36:00,pst,7.75
2024-03-15T12:37:00,pst,7.79
2024-03-15T12:38:00,pst,7.85
2024-03-15T12:39:00,pst,7.87
2024-03-15T12:40:00,pst,7.78
2024-03-15T12:41:00,pst,7.70
2024-03-15T12:42:00,pst,7.65
2024-03-15T12:43:00,pst,7.66
2024-03-15T12:44:00,pst,7.75
2024-03-15T12:45:00,pst,11.98
2024-03-15T12:46:00,pst,11.95
2024-03-15T12:47:00,pst,11.94
2024-03-15T12:48:00,pst,11.99
2024-03-15T12:49:00,pst,12.00
2024-03-15T12:50:00,pst,12.07
2024-03-15T12:51:00,pst,12.16
2024-03-15T12:52:00,pst,12.12
2024-03-15T12:53:00,pst,8.16
2024-03-15T12:54:00,pst,12.52
2024-03-15T12:55:00,pst,12.50
2024-03-15T12:56:00,pst,8.63
2024-03-15T12:57:00,pst,12.52
2024-03-15T12:58:00,pst,12.51
2024-03-15T12:59:00,pst,8.42
2024-03-15T13:00:00,pst,12.36
2024-03-15T13:01:00,pst,12.37
2024-03-15T13:02:00,pst,19.53
2024-03-15T13:03:00,pst,12.37
2024-03-15T13:04:00,pst,18.94
2024-03-15T13:05:00,pst,7.81
2024-03-15T13:06:00,pst,7.73
2024-03-15T13:07:00,pst,7.72
2024-03-15T13:08:00,pst,7.67
2024-03-15T13:09:00,pst,7.69
2024-03-15T13:10:00,pst,7.55
2024-03-15T13:11:00,pst,7.55
2024-03-15T13:12:00,pst,7.44
2024-03-15T13:13:00,pst,7.56
2024-03-15T13:14:00,pst,7.62
2024-03-15T13:15:00,pst,7.66
2024-03-15T13:16:00,pst,8.02
2024-03-15T13:17:00,pst,7.90
2024-03-15T13:18:00,pst,7.95
2024-03-15T13:19:00,pst,7.92
2024-03-15T13:20:00,pst,7.88
2024-03-15T13:21:00,pst,7.82
2024-03-15T13:22:00,pst,7.85
2024-03-15T13:23:00,pst,7.69
2024-03-15T13:24:00,pst,7.62
2024-03-15T13:25:00,pst,7.62
2024-03-15T13:26:00,pst,7.76
2024-03-15T13:27:00,pst,7.78
2024-03-15T13:28:00,pst,7.73